Regional Weather Roundup
Issued by NWS

Home | Current Version | Previous Version | Text Only | Print | Product List | Glossary Off
Versions: 1 2 3 4 5 6 7 8 9 10 11 12 13 14 15 16 17 18 19 20 21 22 23 24 25 26 27 28 29 30 31

000
ASUS45 KBOU 291507
RWRCO

WEATHER ROUNDUP FOR COLORADO
NATIONAL WEATHER SERVICE DENVER/BOULDER CO
900 AM MDT WED OCT 29 2014

NOTE: "FAIR" INDICATES FEW OR NO CLOUDS BELOW 12000 FEET WITH NO
SIGNIFICANT WEATHER AND/OR OBSTRUCTIONS TO VISIBILITY.

COZ001>005-013-030-031-291600-
...NORTHWEST COLORADO...

CITY           SKY/WX    TMP DP  RH WIND       PRES   REMARKS
CRAIG          NOT AVBL
HAYDEN           N/A    N/A N/A N/A SE12      30.34S
MEEKER         SUNNY     31  22  69 CALM      30.36R
MOUNT WERNER   NOT AVBL
STEAMBOAT SPGS SUNNY     25  20  79 CALM      30.37R
WALDEN         SUNNY     30  18  59 SE6       30.33R WCI  24
$$

COZ006>008-011-291600-
...WEST CENTRAL VALLEYS...

CITY           SKY/WX    TMP DP  RH WIND       PRES   REMARKS
GRAND JUNCTION MOSUNNY   38  16  40 VRB3      30.35R
MONTROSE       SUNNY     36  17  46 S6        30.38R
EAGLE          NOT AVBL
RIFLE          SUNNY     29  16  58 CALM      30.39R
DELTA          SUNNY     34  18  53 CALM      30.38R
NUCLA          SUNNY     36  14  41 CALM      30.40R
$$

COZ017>023-064>068-291600-
...SOUTHWEST COLORADO...

CITY           SKY/WX    TMP DP  RH WIND       PRES   REMARKS
DURANGO        SUNNY     35  21  56 E3        30.37R
CORTEZ         SUNNY     35  18  49 CALM      30.34S
PAGOSA SPRINGS SUNNY     38  18  44 CALM      30.39R
TELLURIDE      SUNNY     38  17  42 SE6       30.45R
WOLF CREEK PAS NOT AVBL
$$

COZ009-010-012-014-032>034-037-058>063-291600-
...CENTRAL COLORADO...

CITY           SKY/WX    TMP DP  RH WIND       PRES   REMARKS
ASPEN          SUNNY     33  16  49 S5        30.38R WCI  29
BUENA VISTA    SUNNY     36   9  33 CALM      30.35S
COPPER MTN     SUNNY     28   5  37 W8        30.48R WCI  20
BERTHOUD PASS  FAIR      23  19  86 NW25      30.44R WCI   7
COTTONWOOD PAS SUNNY     43   3  19 NW5       30.39R
GUNNISON       SUNNY     21   7  53 CALM      30.48R
KREMMLING      SUNNY     25  19  80 CALM        N/A
LEADVILLE      SUNNY     34   8  33 N7        30.41R WCI  28
SALIDA         SUNNY     40   8  27 CALM      30.40S
SUNLIGHT       SUNNY     34  14  44 CALM      30.47R
WILKERSON PASS NOT AVBL
$$

COZ069>075-291600-
...SAN LUIS VALLEY/SANGRE DE CRISTO MOUNTAINS...

CITY           SKY/WX    TMP DP  RH WIND       PRES   REMARKS
ALAMOSA        MOSUNNY   25  15  66 E6        30.39R WCI  18
LA VETA PASS   NOT AVBL
SAGUACHE       MOSUNNY   36   5  27 NW12      30.40R
$$

COZ035-036-038>040-291600-
...NORTHERN COLORADO FRONT RANGE...

CITY           SKY/WX    TMP DP  RH WIND       PRES   REMARKS
DENVER INTL AP MOSUNNY   50  20  30 S7        30.19R
DMNS CITY PARK   N/A     45  18  33 S9        30.19S
AURORA         MOSUNNY   47  19  33 S9        30.21R
FRONT RANGE AP NOT AVBL
ERIE MUNI ARPT SUNNY     38  30  72 CALM      30.18S
BOULDER MUN AP SUNNY     43  23  45 CALM      30.17S
CENTENNIAL     MOSUNNY   50  19  29 S5        30.21R
BROOMFIELD     MOSUNNY   46  25  42 CALM      30.20R
FORT COLLINS   SUNNY     43  27  52 CALM      30.18F
LONGMONT       SUNNY     42  29  61 CALM      30.19F
$$

COZ041-046-047-076>085-087-088-291600-
...PIKES PEAK/PALMER DIVIDE AND SOUTHERN FOOTHILLS...

CITY           SKY/WX    TMP DP  RH WIND       PRES   REMARKS
COLO. SPRINGS  SUNNY     50  20  30 N5        30.23S
A. F. ACADEMY  SUNNY     39  19  43 N8        30.24R
ELLICOTT       NOT AVBL
FALCON         SUNNY     51  13  21 CALM      30.26R
FORT CARSON    SUNNY     46  19  33 NW9       30.21S
LIMON          SUNNY     43  24  47 NW7       30.21R
MONUMENT HILL  SUNNY     46  18  31 S5        30.24R
TRINIDAD       SUNNY     42  20  41 W12       30.26R
$$

COZ042>045-048>051-090-091-291600-
...NORTHEAST COLORADO...

CITY           SKY/WX    TMP DP  RH WIND       PRES   REMARKS
GREELEY ARPT   MOSUNNY   36  23  60 SW3       30.19S
AKRON          SUNNY     43  26  51 W14       30.17R
BURLINGTON     SUNNY     45  30  55 W6        30.18R
WRAY           SUNNY     39  27  61 SW8       30.16S
STERLING       SUNNY     34  28  80 SW8       30.17R WCI  27
HOLYOKE        SUNNY     41  30  65 W5        30.15R
FORT MORGAN    SUNNY     33  25  72 W12       30.18S WCI  24
$$

COZ086-089-092>099-291600-
...SOUTHEAST COLORADO...

CITY           SKY/WX    TMP DP  RH WIND       PRES   REMARKS
PUEBLO         SUNNY     41  25  53 MISG      30.21S
LA JUNTA       SUNNY     44  25  47 W9        30.21S
LAMAR          SUNNY     42  29  59 W9        30.19S
SPRINGFIELD      N/A     51  28  41 W3        30.21R
$$



USA.gov is the U.S. government's official web portal to all federal, state and local government web resources and services.